Powrót do katalogu

CENTISPACE-1 S8

AktywnyNawigacjaLEO
NORAD 62577·PAYLOAD·🇨🇳 China

Wystrzelony Jan 13, 2025 z Yellow Sea Launch Area

Loading…

Następne Przeloty (najbliższe 24 godziny)

TLE

ŚwieżeSource: Space-Track

Epoka: Sep 14, 2026, 13:35 UTC

1 62577U 25007C   26257.56636631 -.00000049  00000-0  86826-4 0  9997
2 62577  54.9870 339.0353 0012209 301.3733  58.6028 13.80625659 87078

Śledź CENTISPACE-1 S8 w czasie rzeczywistym z AllMySat

Download on the App Store